Home > Time Zones > World Clock > Weather > Norway > Tau > Past weeks

Flag for Norway Weather past 2 weeks in Tau, Norway

Now
66 °F

Passing clouds.


Feels Like: 66 °F
Forecast: 49 / 62 °F
Wind: 9 mph from West

Location: Stavanger / Sola

Current Time: Sep 17, 2014 at 5:39:09 PM

Latest Report: Sep 17, 2014 at 4:50 PM


Visibility: N/A

Pressure: 30.15 "Hg

Humidity: 60%

Dew point: 52 °F

Location of TauLocation

Historic Weather in Tau — Graph

°F

Tau temperature yesterday

Maximum temperature yesterday: 73 °F (at 4:20 PM)
Minimum temperature yesterday: 57 °F (at 2:50 AM)
Average temperature yesterday: 64 °F

Past Weeks' High & Low Weather Summary

 TemperatureHumidityPressure
High73 °F (Sep 16, 4:20 PM)100% (Sep 6, 6:20 AM)30.45 "Hg (Sep 6, 6:20 AM)
Low48 °F (Sep 8, 7:20 AM)31% (Sep 16, 4:50 PM)29.80 "Hg (Sep 7, 1:50 AM)
Average59 °F79%30.17 "Hg
* Reported Sep 2 4:20 PM — Sep 17 4:20 PM, Tau, Weather by CustomWeather, © 2014

Note: Actual official high and low records may vary slightly from our data, if they occured in-between our weather recording intervals... More about our weather records

Advertising

Tau weather history for previous 24 hours

 ConditionsComfort  
Time TempWeatherWind HumidityBarometerVisibility
4:20 PM
Sep 17
70 °FPassing clouds.10 mph46%30.15 "HgN/A
3:50 PM70 °FPassing clouds.6 mph46%30.15 "HgN/A
3:20 PM68 °FSunny.9 mph49%30.15 "Hg10 mi
2:50 PM68 °FSunny.1 mph49%30.18 "Hg10 mi
2:20 PM70 °FSunny.2 mph50%30.18 "Hg10 mi
1:50 PM68 °FPassing clouds.5 mph46%30.18 "HgN/A
1:20 PM68 °FSunny.7 mph46%30.18 "Hg10 mi
12:50 PM68 °FSunny.7 mph46%30.18 "Hg10 mi
12:20 PM66 °FSunny.7 mph49%30.21 "Hg10 mi
11:50 AM66 °FSunny.8 mph46%30.21 "Hg10 mi
11:20 AM64 °FSunny.8 mph46%30.21 "Hg10 mi
10:50 AM64 °FSunny.8 mph46%30.21 "Hg10 mi
10:20 AM63 °FSunny.8 mph45%30.21 "Hg10 mi
9:50 AM63 °FSunny.6 mph49%30.21 "Hg10 mi
9:20 AM59 °FSunny.5 mph55%30.21 "Hg10 mi
8:50 AM55 °FSunny.2 mph63%30.21 "Hg10 mi
8:20 AM52 °FSunny.No wind72%30.21 "Hg10 mi
7:50 AM50 °FClear.1 mph76%30.21 "Hg10 mi
7:20 AM52 °FClear.1 mph72%30.21 "Hg10 mi
6:50 AM50 °FClear.1 mph76%30.21 "Hg10 mi
6:20 AM52 °FClear.1 mph67%30.21 "Hg10 mi
5:50 AM50 °FClear.No wind76%30.21 "Hg10 mi
4:50 AM55 °FClear.No wind63%30.21 "Hg10 mi
3:50 AM55 °FClear.6 mph59%30.21 "Hg10 mi
2:50 AM57 °FClear.7 mph55%30.21 "Hg10 mi
1:50 AM59 °FClear.6 mph51%30.21 "Hg10 mi
1:20 AM61 °FPassing clouds.7 mph52%30.21 "HgN/A
12:50 AM61 °FPassing clouds.7 mph55%30.21 "HgN/A
12:20 AM61 °FPassing clouds.7 mph52%30.24 "HgN/A
11:50 PM
Sep 16
61 °FPassing clouds.7 mph52%30.24 "HgN/A
11:20 PM61 °FClear.8 mph52%30.21 "Hg10 mi
10:50 PM61 °FClear.6 mph52%30.21 "Hg10 mi
10:20 PM61 °FClear.5 mph52%30.24 "Hg10 mi
9:50 PM61 °FClear.6 mph52%30.21 "Hg10 mi
9:20 PM61 °FClear.6 mph52%30.21 "Hg10 mi
8:50 PM63 °FSunny.5 mph49%30.21 "Hg10 mi
8:20 PM64 °FSunny.5 mph49%30.21 "Hg10 mi
7:50 PM66 °FPassing clouds.5 mph43%30.21 "HgN/A
7:20 PM68 °FSunny.3 mph40%30.21 "Hg10 mi
6:50 PM68 °FSunny.5 mph40%30.21 "Hg10 mi
6:20 PM70 °FSunny.6 mph38%30.21 "Hg10 mi
5:50 PM72 °FSunny.7 mph33%30.21 "Hg10 mi
5:20 PM72 °FSunny.8 mph33%30.21 "Hg10 mi
Weather by CustomWeather, © 2014

See weather overviewHow to use our weather pages